Location: Unspecified
(0.0000°N, 0.0000°E)
Time: 16:20:31
(UTC+00:00)

Vanguard 2 Rocket - All Passes

Search period start: 19 October 2020 00:00
Search period end: 29 October 2020 00:00
Orbit: 554 x 3326 km, 32.9° (Epoch: 19 October)

Date Brightness Start Highest point End Pass type
(mag) Time Alt. Az. Time Alt. Az. Time Alt. Az.
19 Oct - 00:03:08 10° N 00:08:50 14° NNE 00:15:42 10° NE visible
19 Oct - 02:13:29 10° NNW 02:27:39 42° NE 02:46:06 10° E visible
19 Oct - 04:27:47 10° NW 04:46:26 87° SW 05:06:09 10° SE visible
19 Oct - 06:47:33 10° W 07:05:46 40° SW 07:20:58 10° SSE daylight
19 Oct - 09:17:44 10° SW 09:25:48 15° SSW 09:32:28 10° S daylight
19 Oct - 14:03:09 10° S 14:04:01 10° SSE 14:04:49 10° SSE daylight
19 Oct - 16:13:39 10° SW 16:18:11 70° SE 16:22:04 10° ENE daylight
20 Oct - 01:14:16 10° NNW 01:25:41 30° NE 01:41:13 10° E visible
20 Oct - 03:27:02 10° NW 03:43:56 75° NE 04:04:19 10° ESE visible
20 Oct - 05:44:15 10° WNW 06:03:10 53° SW 06:20:48 10° SE daylight
20 Oct - 08:10:01 10° WSW 08:23:14 22° SSW 08:33:53 10° SSE daylight
20 Oct - 15:13:56 10° SW 15:18:49 33° SSE 15:22:31 10° E daylight
20 Oct - 17:28:44 10° W 17:31:37 19° NNW 17:34:33 10° NNE daylight
21 Oct - 00:15:49 10° N 00:23:59 20° NNE 00:34:48 10° ENE visible
21 Oct - 02:26:59 10° NW 02:41:43 57° NE 03:01:31 10° ESE visible
21 Oct - 04:42:09 10° WNW 05:00:29 68° SW 05:20:01 10° SE visible
21 Oct - 07:04:06 10° W 07:20:29 30° SSW 07:34:24 10° SSE daylight
21 Oct - 09:37:08 10° SSW 09:41:48 12° SSW 09:45:56 10° S daylight
21 Oct - 14:14:09 10° SSW 14:19:00 21° SSE 14:22:36 10° ESE daylight
21 Oct - 16:28:02 10° WSW 16:32:21 42° NW 16:36:04 10° NE daylight
21 Oct - 23:19:32 10° NNE 23:22:27 11° NNE 23:25:41 10° NE night (unlit)
22 Oct - 01:27:34 10° NNW 01:39:55 41° NE 01:57:37 10° ESE visible
22 Oct - 03:41:02 10° NW 03:57:54 85° SW 04:18:31 10° SE visible
22 Oct - 05:59:52 10° W 06:17:39 40° SSW 06:34:18 10° SSE daylight
22 Oct - 08:28:35 10° SW 08:38:56 17° SSW 08:47:32 10° SSE daylight
22 Oct - 13:14:09 10° SSW 13:18:42 16° SSE 13:22:13 10° SE daylight
22 Oct - 15:27:38 10° SW 15:33:10 83° SSE 15:37:10 10° ENE daylight
23 Oct - 00:28:47 10° NNW 00:38:30 28° NE 00:52:27 10° E visible
23 Oct - 02:40:43 10° NW 02:55:38 76° NE 03:16:13 10° ESE visible
23 Oct - 04:57:05 10° WNW 05:14:47 52° SSW 05:33:36 10° SE visible
23 Oct - 07:21:39 10° WSW 07:35:49 23° SSW 07:47:58 10° SSE daylight
23 Oct - 09:54:43 10° SSW 09:58:07 11° S 10:01:12 10° S daylight
23 Oct - 12:13:37 10° SSW 12:17:54 13° SSE 12:21:22 10° SE daylight
23 Oct - 14:27:15 10° SW 14:33:42 43° SSE 14:37:57 10° ENE daylight
23 Oct - 16:43:33 10° WNW 16:46:27 17° NW 16:49:06 10° N daylight
23 Oct - 23:30:56 10° N 23:37:22 17° NE 23:45:49 10° ENE visible
24 Oct - 01:41:04 10° NW 01:53:51 57° NE 02:13:02 10° ESE visible
24 Oct - 03:55:28 10° WNW 04:12:02 66° SW 04:32:18 10° SE visible
24 Oct - 06:16:23 10° W 06:32:37 30° SSW 06:47:48 10° SSE daylight
24 Oct - 08:47:06 10° SW 08:55:09 14° SSW 09:02:00 10° SSE daylight
24 Oct - 11:12:06 10° SSW 11:16:30 12° S 11:20:11 10° SSE daylight
24 Oct - 13:26:42 10° SSW 13:33:44 29° SSE 13:38:22 10° E daylight
24 Oct - 15:42:09 10° WSW 15:47:15 39° NW 15:51:03 10° NNE daylight
25 Oct - 00:42:00 10° NNW 00:52:35 40° NE 01:08:52 10° ESE visible
25 Oct - 02:54:46 10° WNW 03:09:37 83° SW 03:30:22 10° SE visible
25 Oct - 05:12:43 10° W 05:29:28 39° SSW 05:47:06 10° SE visible
25 Oct - 07:39:53 10° SW 07:51:47 18° SSW 08:02:01 10° SSE daylight
25 Oct - 10:08:57 10° SSW 10:14:25 13° S 10:19:02 10° SSE daylight
25 Oct - 12:25:47 10° SSW 12:33:14 22° SSE 12:38:20 10° ESE daylight
25 Oct - 14:41:05 10° SW 14:48:01 86° NW 14:52:26 10° NE daylight
25 Oct - 23:43:37 10° NNW 23:51:43 26° NE 00:03:37 10° E visible
26 Oct - 01:54:49 10° NW 02:07:43 77° NE 02:27:41 10° ESE visible
26 Oct - 04:10:27 10° WNW 04:26:30 50° SSW 04:45:52 10° SE visible
26 Oct - 06:33:46 10° WSW 06:48:12 23° SSW 07:01:33 10° SSE daylight
26 Oct - 09:04:01 10° SSW 09:11:38 14° S 09:18:02 10° SSE daylight
26 Oct - 11:24:21 10° SSW 11:32:11 19° SSE 11:37:49 10° ESE daylight
26 Oct - 13:40:01 10° SW 13:48:25 55° SSE 13:53:25 10° ENE daylight
26 Oct - 15:57:45 10° W 16:01:11 17° NW 16:04:03 10° N daylight
26 Oct - 22:46:29 10° N 22:51:05 14° NE 22:56:51 10° ENE night (unlit)
27 Oct - 00:55:29 10° NW 01:06:24 57° NE 01:24:15 10° ESE visible
27 Oct - 03:09:15 10° WNW 03:23:51 63° SSW 03:44:05 10° SE visible
27 Oct - 05:29:11 10° WSW 05:44:40 30° SSW 06:00:40 10° SSE daylight
27 Oct - 07:57:54 10° SW 08:08:13 16° S 08:17:03 10° SSE daylight
27 Oct - 10:22:07 10° SSW 10:30:28 17° S 10:36:47 10° SE daylight
27 Oct - 12:38:45 10° SW 12:48:16 37° SSE 12:53:58 10° E daylight
27 Oct - 14:55:41 10° WSW 15:02:01 39° NW 15:06:14 10° NNE daylight
27 Oct - 23:56:44 10° NNW 00:05:39 38° NE 00:20:01 10° ESE visible
28 Oct - 02:08:55 10° WNW 02:21:44 80° SW 02:41:45 10° SE visible
28 Oct - 04:26:07 10° W 04:41:23 37° SSW 04:59:21 10° SE visible
28 Oct - 06:51:43 10° SW 07:04:23 19° SSW 07:15:55 10° SSE daylight
28 Oct - 09:18:52 10° SSW 09:28:01 16° S 09:35:17 10° SE daylight
28 Oct - 11:37:10 10° SSW 11:47:31 29° SSE 11:54:05 10° E daylight
28 Oct - 13:53:58 10° WSW 14:02:41 79° NW 14:07:45 10° NE daylight
28 Oct - 22:58:42 10° N 23:05:18 23° NE 23:14:55 10° E night (unlit)
